When you browse on this site, cookies collect data to enhance your experience and personalize the content and advertising you see.
Visit our Privacy Policy to learn more. By continuing to use the site, you agree to this use of cookies and data.
  • en France
  • Liste des pays
  • À 7 jours
  • Température de l'eau
  • Carte météo
  • Widgets météo
  • user-avatar
    Se connecter

    Météo par heure à Kassama

    Ce jour, 18 Novembre, Lundi

    Heure Température Précipitation Vent Pression Humidité
    00:00 +29°C° 0 mm 1 m/s 719 mmHg 35%
    01:00 +28°C° 0 mm 1 m/s 719 mmHg 38%
    02:00 +28°C° 0 mm 1 m/s 719 mmHg 35%
    03:00 +27°C° 0 mm 1 m/s 720 mmHg 35%
    04:00 +27°C° 0 mm 1 m/s 720 mmHg 34%
    05:00 +27°C° 0 mm 1 m/s 720 mmHg 34%
    06:00 +28°C° 0 mm 2 m/s 721 mmHg 31%
    07:00 +29°C° 0 mm 3 m/s 721 mmHg 28%
    08:00 +31°C° 0 mm 3 m/s 722 mmHg 25%
    09:00 +34°C° 0 mm 4 m/s 722 mmHg 22%
    10:00 +35°C° 0 mm 4 m/s 722 mmHg 20%
    11:00 +37°C° 0 mm 4 m/s 722 mmHg 17%
    12:00 +37°C° 0 mm 4 m/s 721 mmHg 17%
    13:00 +38°C° 0 mm 4 m/s 720 mmHg 17%
    14:00 +39°C° 0 mm 3 m/s 719 mmHg 17%
    15:00 +38°C° 0 mm 3 m/s 719 mmHg 19%
    16:00 +37°C° 0 mm 2 m/s 719 mmHg 21%
    17:00 +35°C° 0 mm 2 m/s 718 mmHg 23%
    18:00 +33°C° 0 mm 1 m/s 719 mmHg 25%
    19:00 +32°C° 0 mm 1 m/s 719 mmHg 26%
    20:00 +30°C° 0 mm 1 m/s 720 mmHg 28%
    21:00 +30°C° 0 mm 1 m/s 720 mmHg 29%
    22:00 +29°C° 0 mm 2 m/s 720 mmHg 29%
    23:00 +29°C° 0 mm 2 m/s 720 mmHg 30%

    Demain, 19 Novembre, Mardi

    Heure Température Précipitation Vent Pression Humidité
    00:00 +28°C° 0 mm 2 m/s 720 mmHg 29%
    01:00 +28°C° 0 mm 2 m/s 720 mmHg 28%
    02:00 +27°C° 0 mm 2 m/s 720 mmHg 27%
    03:00 +27°C° 0 mm 2 m/s 720 mmHg 27%
    04:00 +27°C° 0 mm 2 m/s 720 mmHg 26%
    05:00 +26°C° 0 mm 1 m/s 720 mmHg 26%
    06:00 +28°C° 0 mm 2 m/s 721 mmHg 24%
    07:00 +29°C° 0 mm 2 m/s 721 mmHg 23%
    08:00 +31°C° 0 mm 3 m/s 722 mmHg 21%
    09:00 +34°C° 0 mm 3 m/s 722 mmHg 19%
    10:00 +36°C° 0 mm 3 m/s 722 mmHg 17%
    11:00 +38°C° 0 mm 3 m/s 722 mmHg 15%
    12:00 +39°C° 0 mm 3 m/s 721 mmHg 15%
    13:00 +39°C° 0 mm 3 m/s 720 mmHg 15%
    14:00 +40°C° 0 mm 3 m/s 719 mmHg 15%
    15:00 +39°C° 0 mm 3 m/s 719 mmHg 17%
    16:00 +37°C° 0 mm 2 m/s 719 mmHg 19%
    17:00 +36°C° 0 mm 2 m/s 718 mmHg 20%
    18:00 +35°C° 0 mm 2 m/s 719 mmHg 22%
    19:00 +32°C° 0 mm 2 m/s 719 mmHg 23%
    20:00 +30°C° 0 mm 2 m/s 720 mmHg 24%
    21:00 +30°C° 0 mm 2 m/s 720 mmHg 24%
    22:00 +29°C° 0 mm 2 m/s 720 mmHg 24%
    23:00 +28°C° 0 mm 2 m/s 720 mmHg 24%

    Après-demain, 20 Novembre, Mercredi

    Heure Température Précipitation Vent Pression Humidité
    00:00 +28°C° 0 mm 2 m/s 720 mmHg 23%
    01:00 +27°C° 0 mm 2 m/s 719 mmHg 21%
    02:00 +27°C° 0 mm 3 m/s 719 mmHg 19%
    03:00 +27°C° 0 mm 3 m/s 719 mmHg 18%
    04:00 +27°C° 0 mm 3 m/s 720 mmHg 16%
    05:00 +26°C° 0 mm 3 m/s 720 mmHg 14%
    06:00 +28°C° 0 mm 3 m/s 720 mmHg 14%
    07:00 +29°C° 0 mm 3 m/s 721 mmHg 14%
    08:00 +30°C° 0 mm 4 m/s 721 mmHg 14%
    09:00 +33°C° 0 mm 4 m/s 721 mmHg 13%
    10:00 +36°C° 0 mm 3 m/s 721 mmHg 12%
    11:00 +38°C° 0 mm 3 m/s 721 mmHg 12%
    12:00 +39°C° 0 mm 3 m/s 720 mmHg 12%
    13:00 +39°C° 0 mm 3 m/s 719 mmHg 13%
    14:00 +40°C° 0 mm 2 m/s 719 mmHg 13%
    15:00 +39°C° 0 mm 2 m/s 718 mmHg 15%
    16:00 +37°C° 0 mm 2 m/s 718 mmHg 17%
    17:00 +36°C° 0 mm 2 m/s 718 mmHg 18%
    18:00 +34°C° 0 mm 2 m/s 718 mmHg 20%
    19:00 +32°C° 0 mm 2 m/s 719 mmHg 21%
    20:00 +30°C° 0 mm 2 m/s 719 mmHg 22%
    21:00 +29°C° 0 mm 2 m/s 719 mmHg 22%
    22:00 +28°C° 0 mm 2 m/s 719 mmHg 22%
    23:00 +27°C° 0 mm 2 m/s 719 mmHg 22%

    21 Novembre, Jeudi

    Heure Température Précipitation Vent Pression Humidité
    00:00 +27°C° 0 mm 2 m/s 719 mmHg 22%
    01:00 +26°C° 0 mm 2 m/s 719 mmHg 22%
    02:00 +26°C° 0 mm 2 m/s 719 mmHg 22%
    03:00 +26°C° 0 mm 2 m/s 719 mmHg 23%
    04:00 +25°C° 0 mm 2 m/s 719 mmHg 24%
    05:00 +25°C° 0 mm 2 m/s 719 mmHg 25%
    06:00 +26°C° 0 mm 3 m/s 720 mmHg 26%
    07:00 +28°C° 0 mm 3 m/s 720 mmHg 26%
    08:00 +30°C° 0 mm 4 m/s 721 mmHg 26%
    09:00 +33°C° 0 mm 4 m/s 721 mmHg 24%
    10:00 +35°C° 0 mm 4 m/s 721 mmHg 22%
    11:00 +37°C° 0 mm 3 m/s 720 mmHg 20%
    12:00 +39°C° 0 mm 3 m/s 720 mmHg 18%
    13:00 +40°C° 0 mm 2 m/s 719 mmHg 17%
    14:00 +41°C° 0 mm 1 m/s 718 mmHg 15%
    15:00 +39°C° 0 mm 1 m/s 718 mmHg 17%
    16:00 +37°C° 0 mm 1 m/s 718 mmHg 19%
    17:00 +35°C° 0 mm 1 m/s 718 mmHg 21%
    18:00 +34°C° 0 mm 1 m/s 718 mmHg 23%
    19:00 +32°C° 0 mm 1 m/s 718 mmHg 25%
    20:00 +30°C° 0 mm 2 m/s 719 mmHg 27%
    21:00 +29°C° 0 mm 2 m/s 719 mmHg 28%
    22:00 +29°C° 0 mm 2 m/s 719 mmHg 29%
    23:00 +28°C° 0 mm 2 m/s 719 mmHg 30%

    22 Novembre, Vendredi

    Heure Température Précipitation Vent Pression Humidité
    00:00 +27°C° 0 mm 2 m/s 719 mmHg 31%
    01:00 +27°C° 0 mm 2 m/s 719 mmHg 32%
    02:00 +26°C° 0 mm 2 m/s 718 mmHg 32%
    03:00 +26°C° 0 mm 2 m/s 719 mmHg 33%
    04:00 +26°C° 0 mm 2 m/s 719 mmHg 34%
    05:00 +25°C° 0 mm 2 m/s 719 mmHg 35%
    06:00 +27°C° 0 mm 3 m/s 720 mmHg 32%
    07:00 +28°C° 0 mm 3 m/s 720 mmHg 29%
    08:00 +30°C° 0 mm 4 m/s 721 mmHg 25%
    09:00 +33°C° 0 mm 4 m/s 721 mmHg 23%
    10:00 +35°C° 0 mm 4 m/s 721 mmHg 20%
    11:00 +37°C° 0 mm 4 m/s 721 mmHg 18%
    12:00 +38°C° 0 mm 4 m/s 720 mmHg 17%
    13:00 +39°C° 0 mm 3 m/s 719 mmHg 16%
    14:00 +39°C° 0 mm 3 m/s 719 mmHg 16%
    15:00 +38°C° 0 mm 2 m/s 718 mmHg 18%
    16:00 +37°C° 0 mm 2 m/s 718 mmHg 19%
    17:00 +35°C° 0 mm 1 m/s 718 mmHg 21%
    18:00 +33°C° 0 mm 1 m/s 718 mmHg 22%
    19:00 +32°C° 0 mm 1 m/s 719 mmHg 24%
    20:00 +30°C° 0 mm 1 m/s 719 mmHg 25%
    21:00 +30°C° 0 mm 1 m/s 719 mmHg 26%
    22:00 +29°C° 0 mm 2 m/s 719 mmHg 27%
    23:00 +28°C° 0 mm 2 m/s 719 mmHg 28%

    23 Novembre, Samedi

    Heure Température Précipitation Vent Pression Humidité
    00:00 +27°C° 0 mm 2 m/s 719 mmHg 28%
    01:00 +27°C° 0 mm 2 m/s 719 mmHg 28%
    02:00 +26°C° 0 mm 2 m/s 719 mmHg 29%
    03:00 +26°C° 0 mm 2 m/s 720 mmHg 30%
    04:00 +25°C° 0 mm 2 m/s 720 mmHg 31%
    05:00 +25°C° 0 mm 1 m/s 721 mmHg 33%
    06:00 +26°C° 0 mm 2 m/s 721 mmHg 31%
    07:00 +28°C° 0 mm 2 m/s 722 mmHg 29%
    08:00 +30°C° 0 mm 3 m/s 723 mmHg 28%
    09:00 +33°C° 0 mm 3 m/s 723 mmHg 24%
    10:00 +34°C° 0 mm 3 m/s 722 mmHg 21%
    11:00 +36°C° 0 mm 3 m/s 722 mmHg 17%
    12:00 +37°C° 0 mm 3 m/s 721 mmHg 16%
    13:00 +38°C° 0 mm 3 m/s 720 mmHg 16%
    14:00 +38°C° 0 mm 2 m/s 720 mmHg 15%
    15:00 +37°C° 0 mm 2 m/s 719 mmHg 17%
    16:00 +36°C° 0 mm 2 m/s 719 mmHg 18%
    17:00 +34°C° 0 mm 1 m/s 719 mmHg 20%
    18:00 +33°C° 0 mm 1 m/s 719 mmHg 21%
    19:00 +31°C° 0 mm 1 m/s 720 mmHg 23%
    20:00 +29°C° 0 mm 1 m/s 720 mmHg 24%
    21:00 +29°C° 0 mm 1 m/s 720 mmHg 25%
    22:00 +28°C° 0 mm 1 m/s 720 mmHg 26%
    23:00 +28°C° 0 mm 2 m/s 721 mmHg 26%
    Voir plus